| time (UTC) | temp F | wind direction | speed knots | gust knots | rain 1hr in | rain 24hr in | rain mn in | humidity % | barometer mb |
| 20260503054942 | 41 | 121 | 0.0 | 0.0 | 0.00 | 0.00 | 0.00 | 80 | 1018.4 |
| 20260503054224 | 41 | 122 | 0.0 | 0.0 | 0.00 | 0.00 | 0.00 | 79 | 1018.4 |
| 20260503053722 | 41 | 122 | 0.0 | 1.7 | 0.00 | 0.00 | 0.00 | 78 | 1018.5 |
| 20260503053222 | 41 | 122 | 0.0 | 1.7 | 0.00 | 0.00 | 0.00 | 78 | 1018.5 |
| 20260503052722 | 41 | 359 | 0.0 | 0.0 | 0.00 | 0.00 | 0.00 | 79 | 1018.5 |
| 20260503052224 | 42 | 359 | 0.0 | 0.9 | 0.00 | 0.00 | 0.00 | 78 | 1018.4 |
| 20260503051724 | 42 | 359 | 0.0 | 0.9 | 0.00 | 0.00 | 0.00 | 79 | 1018.4 |
| 20260503051223 | 41 | 15 | 0.0 | 0.0 | 0.00 | 0.00 | 0.00 | 79 | 1018.4 |
| 20260503050724 | 42 | 15 | 0.0 | 0.0 | 0.00 | 0.00 | 0.00 | 78 | 1018.3 |
| 20260503050704 | 42 | 15 | 0.0 | 0.0 | 0.00 | 0.00 | 0.00 | 78 | 1018.4 |
| 20260503045722 | 42 | 15 | 0.0 | 0.0 | 0.00 | 0.00 | 0.00 | 77 | 1018.3 |
| 20260503045220 | 42 | 15 | 0.0 | 0.9 | 0.00 | 0.00 | 0.00 | 78 | 1018.3 |
| 20260503044720 | 42 | 15 | 0.0 | 0.9 | 0.00 | 0.00 | 0.00 | 77 | 1018.2 |
| 20260503044219 | 42 | 15 | 0.0 | 0.9 | 0.00 | 0.00 | 0.00 | 77 | 1018.3 |
| 20260503044205 | 42 | 15 | 0.0 | 0.0 | 0.00 | 0.00 | 0.00 | 76 | 1018.3 |
| 20260503043220 | 43 | 15 | 0.0 | 0.9 | 0.00 | 0.00 | 0.00 | 76 | 1018.3 |
| 20260503041713 | 43 | 15 | 0.0 | 0.9 | 0.00 | 0.00 | 0.00 | 75 | 1018.3 |
| 20260503041210 | 43 | 334 | 0.0 | 5.2 | 0.00 | 0.00 | 0.00 | 75 | 1018.2 |
| 20260503040711 | 43 | 334 | 0.0 | 5.2 | 0.00 | 0.00 | 0.00 | 76 | 1018.1 |
| 20260503040435 | 43 | 39 | 0.0 | 0.0 | 0.00 | 0.00 | 0.00 | 74 | 1018.1 |
| 20260503035710 | 43 | 39 | 0.0 | 0.0 | 0.00 | 0.00 | 0.00 | 74 | 1018.0 |
| 20260503035210 | 43 | 39 | 0.0 | 0.0 | 0.00 | 0.00 | 0.00 | 73 | 1018.1 |
| 20260503034941 | 43 | 39 | 0.0 | 0.0 | 0.00 | 0.00 | 0.00 | 74 | 1017.9 |
| 20260503034441 | 43 | 39 | 0.0 | 0.0 | 0.00 | 0.00 | 0.00 | 73 | 1017.9 |
| 20260503033710 | 44 | 39 | 0.0 | 0.0 | 0.00 | 0.00 | 0.00 | 72 | 1017.8 |
| 20260503033209 | 44 | 39 | 0.0 | 0.0 | 0.00 | 0.00 | 0.00 | 71 | 1017.9 |
| 20260503032710 | 44 | 39 | 0.0 | 0.0 | 0.00 | 0.00 | 0.00 | 71 | 1017.9 |
| 20260503032210 | 45 | 39 | 0.0 | 0.0 | 0.00 | 0.00 | 0.00 | 70 | 1017.9 |
| 20260503031710 | 45 | 39 | 0.0 | 0.0 | 0.00 | 0.00 | 0.00 | 68 | 1017.6 |
| 20260503031210 | 45 | 39 | 0.0 | 0.0 | 0.00 | 0.00 | 0.00 | 68 | 1017.7 |
| 20260503030709 | 46 | 39 | 0.0 | 0.0 | 0.00 | 0.00 | 0.00 | 68 | 1017.6 |
| 20260503030434 | 46 | 39 | 0.0 | 0.0 | 0.00 | 0.00 | 0.00 | 67 | 1017.6 |
| 20260503025711 | 47 | 38 | 0.0 | 0.0 | 0.00 | 0.00 | 0.00 | 66 | 1017.6 |
| 20260503025656 | 47 | 38 | 0.0 | 0.0 | 0.00 | 0.00 | 0.00 | 66 | 1017.6 |
| 20260503024709 | 47 | 38 | 0.0 | 0.0 | 0.00 | 0.00 | 0.00 | 65 | 1017.5 |
| 20260503024209 | 48 | 39 | 0.0 | 0.0 | 0.00 | 0.00 | 0.00 | 64 | 1017.6 |
| 20260503023708 | 48 | 38 | 0.0 | 0.9 | 0.00 | 0.00 | 0.00 | 63 | 1017.6 |
| 20260503023207 | 49 | 39 | 0.0 | 0.9 | 0.00 | 0.00 | 0.00 | 61 | 1017.6 |
| 20260503022706 | 50 | 39 | 0.0 | 0.9 | 0.00 | 0.00 | 0.00 | 60 | 1017.5 |
| 20260503022202 | 50 | 39 | 0.0 | 2.6 | 0.00 | 0.00 | 0.00 | 60 | 1017.5 |
| 20260503020656 | 52 | 329 | 0.9 | 4.3 | 0.00 | 0.00 | 0.00 | 54 | 1017.3 |
| 20260503020154 | 52 | 349 | 0.9 | 4.3 | 0.00 | 0.00 | 0.00 | 54 | 1017.3 |
| 20260503015655 | 51 | 350 | 0.9 | 3.5 | 0.00 | 0.00 | 0.00 | 55 | 1017.0 |
| 20260503015155 | 52 | 101 | 0.9 | 3.5 | 0.00 | 0.00 | 0.00 | 56 | 1017.0 |
| 20260503014654 | 52 | 9 | 0.9 | 7.0 | 0.00 | 0.00 | 0.00 | 55 | 1017.0 |
| 20260503014148 | 52 | 302 | 0.9 | 7.0 | 0.00 | 0.00 | 0.00 | 54 | 1016.9 |
| 20260503013643 | 52 | 24 | 0.9 | 5.2 | 0.00 | 0.00 | 0.00 | 55 | 1016.9 |
| 20260503013137 | 52 | 333 | 0.0 | 4.3 | 0.00 | 0.00 | 0.00 | 54 | 1016.8 |
| 20260503012630 | 52 | 84 | 0.9 | 4.3 | 0.00 | 0.00 | 0.00 | 55 | 1016.7 |
| 20260503012124 | 52 | 169 | 0.9 | 4.3 | 0.00 | 0.00 | 0.00 | 54 | 1016.7 |
| 20260503011847 | 52 | 296 | 0.9 | 4.3 | 0.00 | 0.00 | 0.00 | 55 | 1016.6 |
| 20260503011112 | 52 | 8 | 0.9 | 4.3 | 0.00 | 0.00 | 0.00 | 54 | 1016.5 |
| 20260503010606 | 52 | 97 | 0.0 | 2.6 | 0.00 | 0.00 | 0.00 | 57 | 1016.5 |
| 20260503010100 | 52 | 338 | 0.9 | 3.5 | 0.00 | 0.00 | 0.00 | 56 | 1016.5 |
| 20260503005553 | 52 | 358 | 0.9 | 3.5 | 0.00 | 0.00 | 0.00 | 57 | 1016.5 |
| 20260503005319 | 52 | 54 | 0.0 | 0.9 | 0.00 | 0.00 | 0.00 | 61 | 1016.4 |
| 20260503004541 | 52 | 281 | 0.0 | 0.9 | 0.00 | 0.00 | 0.00 | 62 | 1016.3 |
| 20260503004035 | 52 | 281 | 0.0 | 0.9 | 0.00 | 0.00 | 0.00 | 63 | 1016.2 |
| 20260503003803 | 52 | 281 | 0.0 | 0.9 | 0.00 | 0.00 | 0.00 | 63 | 1016.1 |
| 20260503003024 | 53 | 281 | 0.0 | 0.9 | 0.00 | 0.00 | 0.00 | 62 | 1016.1 |
| 20260503002746 | 53 | 291 | 0.0 | 0.9 | 0.00 | 0.00 | 0.00 | 61 | 1016.0 |
| 20260503002238 | 54 | 291 | 0.0 | 0.0 | 0.00 | 0.00 | 0.00 | 60 | 1015.9 |
| 20260503001736 | 54 | 291 | 0.0 | 0.0 | 0.00 | 0.00 | 0.00 | 59 | 1015.8 |
| 20260503001000 | 55 | 291 | 0.0 | 0.0 | 0.00 | 0.00 | 0.00 | 58 | 1015.8 |
| 20260503000454 | 55 | 291 | 0.0 | 0.0 | 0.00 | 0.00 | 0.00 | 57 | 1015.6 |
| 20260502235949 | 55 | 291 | 0.0 | 0.0 | 0.00 | 0.00 | 0.00 | 58 | 1015.4 |
| 20260502235442 | 56 | 291 | 0.0 | 0.9 | 0.00 | 0.00 | 0.00 | 58 | 1015.4 |
| 20260502234936 | 56 | 291 | 0.0 | 0.9 | 0.00 | 0.00 | 0.00 | 57 | 1015.4 |
| 20260502234429 | 56 | 291 | 0.0 | 0.9 | 0.00 | 0.00 | 0.00 | 57 | 1015.4 |
| 20260502234154 | 56 | 291 | 0.0 | 0.9 | 0.00 | 0.00 | 0.00 | 54 | 1015.4 |
| 20260502233418 | 56 | 291 | 0.0 | 2.6 | 0.00 | 0.00 | 0.00 | 56 | 1015.3 |
| 20260502233356 | 57 | 293 | 0.0 | 2.6 | 0.00 | 0.00 | 0.00 | 54 | 1015.2 |
| 20260502232635 | 57 | 277 | 0.0 | 1.7 | 0.00 | 0.00 | 0.00 | 54 | 1015.2 |
| 20260502231901 | 57 | 321 | 0.0 | 6.1 | 0.00 | 0.00 | 0.00 | 53 | 1015.1 |
| 20260502231353 | 57 | 302 | 0.9 | 6.1 | 0.00 | 0.00 | 0.00 | 52 | 1015.0 |
| 20260502230848 | 57 | 357 | 0.9 | 3.5 | 0.00 | 0.00 | 0.00 | 52 | 1014.9 |
| 20260502230342 | 57 | 13 | 0.9 | 2.6 | 0.00 | 0.00 | 0.00 | 56 | 1014.9 |
| 20260502225329 | 57 | 46 | 0.9 | 4.3 | 0.00 | 0.00 | 0.00 | 52 | 1014.9 |
| 20260502224823 | 58 | 43 | 0.9 | 4.3 | 0.00 | 0.00 | 0.00 | 53 | 1014.9 |
| 20260502224318 | 58 | 28 | 0.9 | 4.3 | 0.00 | 0.00 | 0.00 | 56 | 1014.8 |
| 20260502223811 | 58 | 5 | 0.9 | 3.5 | 0.00 | 0.00 | 0.00 | 60 | 1014.8 |
| 20260502223307 | 58 | 44 | 0.0 | 3.5 | 0.00 | 0.00 | 0.00 | 60 | 1014.8 |
| 20260502222807 | 58 | 31 | 0.0 | 0.9 | 0.00 | 0.00 | 0.00 | 61 | 1014.7 |
| 20260502222308 | 58 | 42 | 0.0 | 0.9 | 0.00 | 0.00 | 0.00 | 60 | 1014.7 |
| 20260502221805 | 59 | 41 | 0.0 | 0.9 | 0.00 | 0.00 | 0.00 | 60 | 1014.6 |
| 20260502221530 | 59 | 249 | 0.0 | 0.9 | 0.00 | 0.00 | 0.00 | 57 | 1014.4 |
| 20260502220804 | 59 | 271 | 0.0 | 0.9 | 0.00 | 0.00 | 0.00 | 56 | 1014.4 |
| 20260502220300 | 60 | 267 | 0.0 | 0.9 | 0.00 | 0.00 | 0.00 | 57 | 1014.3 |
| 20260502215801 | 60 | 14 | 0.0 | 1.7 | 0.00 | 0.00 | 0.00 | 56 | 1014.0 |
| 20260502215300 | 60 | 331 | 0.0 | 1.7 | 0.00 | 0.00 | 0.00 | 54 | 1014.0 |
| 20260502215244 | 61 | 239 | 0.0 | 1.7 | 0.00 | 0.00 | 0.00 | 58 | 1014.0 |
| 20260502214300 | 61 | 207 | 0.0 | 1.7 | 0.00 | 0.00 | 0.00 | 56 | 1014.0 |
| 20260502214021 | 62 | 139 | 0.9 | 2.6 | 0.00 | 0.00 | 0.00 | 53 | 1013.9 |
| 20260502213258 | 62 | 130 | 0.9 | 2.6 | 0.00 | 0.00 | 0.00 | 53 | 1013.8 |
| 20260502212759 | 63 | 273 | 0.9 | 3.5 | 0.00 | 0.00 | 0.00 | 54 | 1013.8 |
| 20260502212254 | 63 | 240 | 0.9 | 3.5 | 0.00 | 0.00 | 0.00 | 52 | 1013.8 |
| 20260502211753 | 65 | 233 | 0.9 | 4.3 | 0.00 | 0.00 | 0.00 | 48 | 1013.7 |
| 20260502211253 | 65 | 334 | 0.9 | 4.3 | 0.00 | 0.00 | 0.00 | 49 | 1013.7 |
| 20260502210755 | 65 | 199 | 0.9 | 2.6 | 0.00 | 0.00 | 0.00 | 48 | 1013.7 |
| 20260502210518 | 65 | 100 | 0.9 | 2.6 | 0.00 | 0.00 | 0.00 | 48 | 1013.4 |
| 20260502205754 | 65 | 79 | 0.9 | 1.7 | 0.00 | 0.00 | 0.00 | 48 | 1013.5 |
| 20260502205247 | 65 | 104 | 0.9 | 2.6 | 0.00 | 0.00 | 0.00 | 51 | 1013.3 |
| 20260502204741 | 64 | 80 | 0.9 | 2.6 | 0.00 | 0.00 | 0.00 | 50 | 1013.4 |
| 20260502204236 | 64 | 200 | 0.9 | 3.5 | 0.00 | 0.00 | 0.00 | 49 | 1013.5 |
| 20260502203735 | 64 | 14 | 0.9 | 3.5 | 0.00 | 0.00 | 0.00 | 48 | 1013.8 |
| 20260502203234 | 64 | 84 | 0.9 | 2.6 | 0.00 | 0.00 | 0.00 | 49 | 1013.9 |
| 20260502202734 | 64 | 113 | 0.9 | 2.6 | 0.00 | 0.00 | 0.00 | 49 | 1013.9 |
| 20260502202452 | 63 | 15 | 0.9 | 2.6 | 0.00 | 0.00 | 0.00 | 53 | 1013.8 |
| 20260502201733 | 63 | 75 | 0.9 | 3.5 | 0.00 | 0.00 | 0.00 | 55 | 1014.0 |
| 20260502201233 | 63 | 78 | 0.9 | 3.5 | 0.00 | 0.00 | 0.00 | 51 | 1014.0 |
| 20260502200733 | 64 | 75 | 0.9 | 2.6 | 0.00 | 0.00 | 0.00 | 52 | 1014.1 |
| 20260502200234 | 63 | 153 | 0.9 | 2.6 | 0.00 | 0.00 | 0.00 | 53 | 1014.1 |
| 20260502200001 | 64 | 86 | 0.9 | 2.6 | 0.00 | 0.00 | 0.00 | 52 | 1014.2 |
| 20260502195456 | 64 | 8 | 0.9 | 2.6 | 0.00 | 0.00 | 0.00 | 53 | 1014.4 |
| 20260502194730 | 63 | 35 | 0.9 | 3.5 | 0.00 | 0.00 | 0.00 | 49 | 1014.6 |
| 20260502194233 | 62 | 274 | 0.9 | 3.5 | 0.00 | 0.00 | 0.00 | 49 | 1014.7 |
| 20260502193727 | 62 | 238 | 0.9 | 3.5 | 0.00 | 0.00 | 0.00 | 49 | 1014.8 |
| 20260502193229 | 62 | 91 | 0.9 | 4.3 | 0.00 | 0.00 | 0.00 | 56 | 1014.7 |
| 20260502192726 | 61 | 226 | 0.9 | 4.3 | 0.00 | 0.00 | 0.00 | 51 | 1014.8 |
| 20260502192226 | 62 | 68 | 0.9 | 3.5 | 0.00 | 0.00 | 0.00 | 51 | 1014.9 |
| 20260502192001 | 62 | 91 | 0.9 | 3.5 | 0.00 | 0.00 | 0.00 | 50 | 1014.8 |
| 20260502191450 | 63 | 101 | 1.7 | 3.5 | 0.00 | 0.00 | 0.00 | 50 | 1014.8 |
| 20260502190726 | 62 | 166 | 1.7 | 3.5 | 0.00 | 0.00 | 0.00 | 47 | 1014.8 |
| 20260502190227 | 62 | 68 | 0.9 | 3.5 | 0.00 | 0.00 | 0.00 | 53 | 1014.9 |
| 20260502185728 | 62 | 333 | 0.0 | 2.6 | 0.00 | 0.00 | 0.00 | 52 | 1015.0 |
| 20260502185224 | 60 | 110 | 0.9 | 3.5 | 0.00 | 0.00 | 0.00 | 55 | 1015.0 |
| 20260502184725 | 60 | 285 | 0.9 | 4.3 | 0.00 | 0.00 | 0.00 | 51 | 1015.1 |
| 20260502184224 | 60 | 215 | 0.0 | 4.3 | 0.00 | 0.00 | 0.00 | 51 | 1015.1 |
| 20260502183725 | 60 | 54 | 0.9 | 1.7 | 0.00 | 0.00 | 0.00 | 53 | 1015.1 |
| 20260502183226 | 60 | 321 | 0.9 | 2.6 | 0.00 | 0.00 | 0.00 | 57 | 1015.2 |
| 20260502183215 | 60 | 217 | 0.9 | 2.6 | 0.00 | 0.00 | 0.00 | 52 | 1015.3 |
| 20260502182224 | 59 | 181 | 0.9 | 5.2 | 0.00 | 0.00 | 0.00 | 51 | 1015.3 |
| 20260502181727 | 59 | 330 | 0.0 | 5.2 | 0.00 | 0.00 | 0.00 | 52 | 1015.4 |
| 20260502181226 | 60 | 76 | 0.0 | 2.6 | 0.00 | 0.00 | 0.00 | 55 | 1015.3 |
| 20260502180950 | 60 | 218 | 0.0 | 2.6 | 0.00 | 0.00 | 0.00 | 52 | 1015.4 |
| 20260502180215 | 60 | 72 | 0.0 | 2.6 | 0.00 | 0.00 | 0.00 | 52 | 1015.5 |
| 20260502170148 | 54 | 36 | 0.9 | 3.5 | 0.00 | 0.00 | 0.00 | 62 | 1016.3 |
| 20260502164142 | 53 | 14 | 0.9 | 5.2 | 0.00 | 0.00 | 0.00 | 62 | 1016.8 |
| 20260502163641 | 53 | 351 | 0.9 | 5.2 | 0.00 | 0.00 | 0.00 | 64 | 1016.9 |
| 20260502163358 | 52 | 20 | 0.9 | 4.3 | 0.00 | 0.00 | 0.00 | 63 | 1016.9 |
| 20260502162139 | 52 | 328 | 1.7 | 6.1 | 0.00 | 0.00 | 0.00 | 64 | 1017.2 |
| 20260502161636 | 52 | 68 | 0.9 | 6.1 | 0.00 | 0.00 | 0.00 | 69 | 1016.9 |
| 20260502161137 | 52 | 355 | 0.9 | 4.3 | 0.00 | 0.00 | 0.00 | 66 | 1017.2 |
| 20260502160633 | 52 | 348 | 0.9 | 4.3 | 0.00 | 0.00 | 0.00 | 65 | 1017.3 |
| 20260502160125 | 52 | 347 | 0.0 | 1.7 | 0.00 | 0.00 | 0.00 | 66 | 1017.3 |
| 20260502152037 | 51 | 105 | 0.0 | 2.6 | 0.00 | 0.00 | 0.00 | 66 | 1017.4 |
| 20260502151531 | 51 | 47 | 0.9 | 4.3 | 0.00 | 0.00 | 0.00 | 68 | 1017.2 |
| 20260502151025 | 51 | 94 | 0.9 | 4.3 | 0.00 | 0.00 | 0.00 | 65 | 1017.3 |
| 20260502150519 | 51 | 32 | 0.9 | 4.3 | 0.00 | 0.00 | 0.00 | 65 | 1017.2 |
| 20260502130256 | 51 | 324 | 0.9 | 3.5 | 0.00 | 0.00 | 0.00 | 72 | 1016.6 |
| 20260502123725 | 51 | 33 | 0.9 | 3.5 | 0.00 | 0.00 | 0.00 | 77 | 1016.4 |
| 20260502123219 | 51 | 33 | 0.9 | 3.5 | 0.00 | 0.00 | 0.00 | 76 | 1016.3 |
| 20260502122719 | 51 | 10 | 0.9 | 3.5 | 0.00 | 0.00 | 0.00 | 76 | 1016.3 |
| 20260502122440 | 51 | 14 | 0.0 | 2.6 | 0.00 | 0.00 | 0.00 | 77 | 1016.3 |
| 20260502121718 | 51 | 12 | 0.0 | 2.6 | 0.00 | 0.00 | 0.00 | 81 | 1016.4 |
| 20260502121702 | 51 | 5 | 0.0 | 1.7 | 0.00 | 0.00 | 0.00 | 82 | 1016.4 |
| 20260502120716 | 51 | 1 | 0.0 | 1.7 | 0.00 | 0.00 | 0.00 | 83 | 1016.4 |
| 20260502120216 | 51 | 0 | 0.0 | 1.7 | 0.00 | 0.00 | 0.00 | 82 | 1016.3 |
| 20260502115715 | 51 | 20 | 0.0 | 1.7 | 0.00 | 0.00 | 0.00 | 85 | 1016.4 |
| 20260502115213 | 51 | 20 | 0.0 | 1.7 | 0.00 | 0.00 | 0.00 | 84 | 1016.5 |
| 20260502114711 | 51 | 11 | 0.0 | 1.7 | 0.00 | 0.00 | 0.00 | 85 | 1016.3 |
| 20260502114207 | 51 | 11 | 0.0 | 1.7 | 0.00 | 0.00 | 0.00 | 85 | 1016.3 |
| 20260502113708 | 50 | 142 | 0.0 | 0.9 | 0.00 | 0.00 | 0.00 | 85 | 1016.3 |
| 20260502113210 | 50 | 141 | 0.0 | 0.0 | 0.00 | 0.00 | 0.00 | 86 | 1016.1 |
| 20260502112709 | 50 | 141 | 0.0 | 0.0 | 0.00 | 0.00 | 0.00 | 87 | 1016.2 |
| 20260502111709 | 50 | 142 | 0.0 | 0.0 | 0.00 | 0.00 | 0.00 | 87 | 1016.1 |
| 20260502111207 | 50 | 142 | 0.0 | 0.0 | 0.00 | 0.00 | 0.00 | 87 | 1015.9 |
| 20260502110933 | 50 | 142 | 0.0 | 0.0 | 0.00 | 0.00 | 0.00 | 87 | 1016.1 |
| 20260502110428 | 50 | 142 | 0.0 | 0.0 | 0.00 | 0.00 | 0.00 | 87 | 1016.0 |
| 20260502105708 | 50 | 141 | 0.0 | 0.0 | 0.00 | 0.00 | 0.00 | 87 | 1016.1 |
| 20260502105208 | 50 | 142 | 0.0 | 0.0 | 0.00 | 0.00 | 0.00 | 87 | 1016.0 |
| 20260502104931 | 50 | 142 | 0.0 | 0.0 | 0.00 | 0.00 | 0.00 | 87 | 1015.9 |
| 20260502104208 | 50 | 142 | 0.0 | 0.0 | 0.00 | 0.00 | 0.00 | 87 | 1015.8 |
| 20260502103708 | 50 | 142 | 0.0 | 0.0 | 0.00 | 0.00 | 0.00 | 87 | 1015.8 |
| 20260502103207 | 50 | 142 | 0.0 | 0.0 | 0.00 | 0.00 | 0.00 | 87 | 1015.9 |
| 20260502102707 | 50 | 141 | 0.0 | 0.0 | 0.00 | 0.00 | 0.00 | 87 | 1015.9 |
| 20260502102208 | 50 | 142 | 0.0 | 0.0 | 0.00 | 0.00 | 0.00 | 86 | 1016.1 |
| 20260502101709 | 50 | 142 | 0.0 | 0.0 | 0.00 | 0.00 | 0.00 | 86 | 1016.0 |
| 20260502101207 | 50 | 142 | 0.0 | 0.0 | 0.00 | 0.00 | 0.00 | 86 | 1016.1 |
| 20260502100709 | 50 | 142 | 0.0 | 0.0 | 0.00 | 0.00 | 0.00 | 86 | 1016.1 |
| 20260502100207 | 51 | 142 | 0.0 | 0.0 | 0.00 | 0.00 | 0.00 | 87 | 1016.0 |
| 20260502091136 | 51 | 142 | 0.0 | 0.9 | 0.00 | 0.00 | 0.00 | 85 | 1015.8 |
| 20260502090857 | 51 | 142 | 0.0 | 0.9 | 0.00 | 0.00 | 0.00 | 85 | 1015.8 |
| 20260502090124 | 51 | 160 | 0.0 | 0.9 | 0.00 | 0.00 | 0.00 | 85 | 1015.6 |
| 20260502070912 | 52 | 160 | 0.0 | 0.0 | 0.00 | 0.00 | 0.00 | 87 | 1015.1 |
| 20260502070406 | 52 | 160 | 0.0 | 0.0 | 0.00 | 0.00 | 0.00 | 87 | 1015.0 |
| 20260502065900 | 52 | 160 | 0.0 | 0.0 | 0.00 | 0.00 | 0.00 | 87 | 1015.2 |
| 20260502065354 | 52 | 160 | 0.0 | 0.0 | 0.00 | 0.00 | 0.00 | 87 | 1015.2 |
| 20260502064848 | 53 | 160 | 0.0 | 0.0 | 0.00 | 0.00 | 0.00 | 87 | 1015.2 |
| 20260502064341 | 53 | 160 | 0.0 | 0.0 | 0.00 | 0.00 | 0.00 | 87 | 1015.3 |
| 20260502063836 | 53 | 160 | 0.0 | 0.0 | 0.00 | 0.00 | 0.00 | 87 | 1015.3 |
| 20260502063330 | 53 | 160 | 0.0 | 0.0 | 0.00 | 0.00 | 0.00 | 87 | 1015.5 |